Vernon, British Columbia

7:17 AM PDT on October 18, 2017 (GMT -0700)
Vernon

Weather History for CWJV - October, 2012

Change the Weather History Date:

Thursday, October 11, 2012

  Actual Average (CYLW) Record (CYLW)
Temperature  
Mean Temperature 50 °F -  
Max Temperature 63 °F 55 °F 66 °F (2015)
Min Temperature 37 °F 33 °F 21 °F (2008)
Degree Days  
Heating Degree Days 15    
Moisture  
Dew Point 38 °F    
Average Humidity 62    
Maximum Humidity 86    
Minimum Humidity 42    
Precipitation  
Precipitation 0.00 in - - ()
Sea Level Pressure  
Sea Level Pressure 29.91 in    
Wind  
Wind Speed 3 mph ()    
Max Wind Speed 9 mph    
Max Gust Speed -    
Averages and records for this station are not official NWS values.
T = Trace of Precipitation, MM = Missing Value Source: Averaged Metar Reports

Daily Weather History Graph

Daily Weather History Graph

Search for Another Location

Airport or City:

Trip Planner

Search our weather history database for the weather conditions in past years. The results will help you decide how hot, cold, wet, or windy it might be!

Date:

Astronomy

Oct. 11, 2012 Rise Set
Actual Time 7:13 AM PDT 6:12 PM PDT
Civil Twilight 6:41 AM PDT 6:45 PM PDT
Nautical Twilight 6:03 AM PDT 7:22 PM PDT
Astronomical Twilight 5:25 AM PDT 8:00 PM PDT
Moon 2:34 AM PDT (10/11) 4:10 PM PDT (10/11)
Length of Visible Light 12h 03m
Length of Day
10h 58m
Waning Crescent, 17% of the Moon is Illuminated
Oct 11
Waning Crescent
Oct 15
New
Oct 21
First Quarter
Oct 29
Full
Nov 6
Last Quarter

Hourly Weather History & Observations

Time (PDT) Temp. Windchill Dew Point Humidity Pressure Visibility Wind Dir Wind Speed Gust Speed Precip Events Conditions
12:00 AM 45.9 °F - 36.5 °F 70% 29.95 in - East 1.2 mph - N/A   Unknown
1:00 AM 45.3 °F 41.6 °F 35.8 °F 69% 29.97 in - ESE 6.9 mph - N/A   Unknown
2:00 AM 42.8 °F - 35.4 °F 75% 29.98 in - East 1.2 mph - N/A   Unknown
3:00 AM 43.3 °F 41.7 °F 35.6 °F 74% 29.98 in - East 3.5 mph - N/A   Unknown
4:00 AM 41.7 °F - 35.8 °F 79% 29.99 in - ENE 2.3 mph - N/A   Unknown
5:00 AM 41 °F - 36 °F 74% 30.01 in - East 4.6 mph - -  
5:00 AM 41.0 °F 38.0 °F 35.6 °F 81% 30.01 in - East 4.6 mph - N/A   Unknown
6:00 AM 40.1 °F - 34.9 °F 82% 30.02 in - East 2.3 mph - N/A   Unknown
8:00 AM 39.0 °F - 35.1 °F 86% 30.04 in - East 2.3 mph - N/A   Unknown
10:00 AM 48.9 °F - 37.8 °F 65% 30.03 in - ESE 3.5 mph - N/A   Unknown
11:00 AM 53 °F - 37 °F 43% 29.99 in - East 1.2 mph - -  
11:00 AM 53.4 °F - 37.2 °F 54% 29.99 in - East 1.2 mph - N/A   Unknown
1:00 PM 57.9 °F - 38.8 °F 49% 29.93 in - NW 2.3 mph - N/A   Unknown
2:00 PM 60.8 °F - 37.9 °F 43% 29.90 in - West 3.5 mph - N/A   Unknown
3:00 PM 61.7 °F - 40.3 °F 45% 29.87 in - West 2.3 mph - N/A   Unknown
4:00 PM 62.8 °F - 39.2 °F 42% 29.83 in - West 2.3 mph - N/A   Unknown
5:00 PM 58 °F - 42 °F 45% 29.81 in - Calm Calm - -  
5:00 PM 58.3 °F - 42.3 °F 55% 29.81 in - Calm Calm - N/A   Unknown
8:00 PM 52.9 °F - 39.6 °F 61% 29.77 in - ESE 9.2 mph - N/A   Unknown
9:00 PM 52.5 °F - 38.5 °F 59% 29.75 in - East 8.1 mph - N/A   Unknown
10:00 PM 49.6 °F - 38.7 °F 66% 29.76 in - East 2.3 mph - N/A   Unknown
11:00 PM 50 °F - 38 °F 53% 29.74 in - ESE 9.2 mph - -  
11:00 PM 50.2 °F - 38.1 °F 63% 29.74 in - ESE 9.2 mph - N/A   Unknown